IBE26YK LEMD-LFLL

Flight info

Callsign IBE26YK
Flight time N/A
Altitude 32000
Route PINAR N870 SEGRE N871 RONNY/N0431F280 N871 TOPTU DCT TOU DCT GAI DCT MEN DCT NINUN G53 MEZIN
Aircraft CRJX/M-SDFGIRWY/S

Departure

Time N/A
Airport Adolfo Suárez Madrid–Barajas Airport (LEMD)

Arrival

Time 2026-05-06 14:57
Airport Lyon Saint-Exupéry Airport (LFLL)
Time Latitude Longitude Altitude Speed Heading
2026-05-06 13:57 41.59742 -1.76256 31963 ft 429 kts 34°
2026-05-06 13:57 41.64415 -1.71191 31971 ft 435 kts 35°
2026-05-06 13:58 41.69115 -1.66083 31976 ft 440 kts 35°
2026-05-06 13:58 41.73888 -1.60889 31973 ft 444 kts 35°
2026-05-06 13:59 41.78712 -1.55626 31981 ft 449 kts 35°
2026-05-06 13:59 41.83575 -1.50313 31974 ft 453 kts 35°
2026-05-06 14:00 41.88477 -1.44942 31983 ft 457 kts 35°
2026-05-06 14:00 41.93427 -1.39517 31980 ft 460 kts 35°
2026-05-06 14:01 41.98374 -1.34082 32005 ft 463 kts 35°
2026-05-06 14:01 42.03414 -1.28529 31985 ft 467 kts 35°
2026-05-06 14:02 42.08423 -1.22995 31978 ft 469 kts 35°
2026-05-06 14:02 42.13483 -1.17377 31976 ft 471 kts 35°
2026-05-06 14:03 42.18570 -1.11745 31973 ft 474 kts 35°
2026-05-06 14:03 42.23646 -1.06107 31984 ft 476 kts 36°
2026-05-06 14:04 42.28771 -1.00413 31978 ft 478 kts 36°
2026-05-06 14:04 42.33898 -0.94689 31971 ft 479 kts 36°
2026-05-06 14:05 42.39041 -0.88939 31971 ft 480 kts 36°
2026-05-06 14:05 42.43956 -0.82803 31975 ft 484 kts 46°
2026-05-06 14:06 42.48111 -0.75586 31964 ft 486 kts 52°
2026-05-06 14:06 42.52106 -0.68249 31960 ft 487 kts 50°
2026-05-06 14:07 42.56251 -0.60970 31950 ft 487 kts 50°
2026-05-06 14:07 42.60382 -0.53652 31951 ft 488 kts 50°
2026-05-06 14:08 42.64515 -0.46334 31961 ft 488 kts 51°
2026-05-06 14:08 42.68634 -0.38995 31951 ft 488 kts 51°
2026-05-06 14:09 42.72720 -0.31709 31949 ft 487 kts 51°
2026-05-06 14:09 42.76829 -0.24377 31939 ft 487 kts 51°
2026-05-06 14:10 42.80963 -0.17085 31966 ft 486 kts 49°
2026-05-06 14:10 42.85302 -0.09999 31985 ft 486 kts 48°
2026-05-06 14:11 42.89622 -0.02909 31999 ft 487 kts 48°
2026-05-06 14:11 42.93924 0.04244 31978 ft 488 kts 49°
2026-05-06 14:12 42.98191 0.11378 31949 ft 488 kts 49°
2026-05-06 14:12 43.02488 0.18582 31999 ft 488 kts 49°
2026-05-06 14:13 43.06758 0.25777 31978 ft 486 kts 49°
2026-05-06 14:13 43.11016 0.32949 31978 ft 485 kts 49°
2026-05-06 14:14 43.15269 0.40132 31968 ft 484 kts 49°
2026-05-06 14:14 43.19513 0.47311 31963 ft 485 kts 49°
2026-05-06 14:15 43.23725 0.54460 31986 ft 485 kts 50°
2026-05-06 14:15 43.27962 0.61677 31967 ft 485 kts 50°
2026-05-06 14:16 43.32188 0.68889 31964 ft 484 kts 50°
2026-05-06 14:16 43.36406 0.76104 31964 ft 484 kts 50°
2026-05-06 14:17 43.40626 0.83338 31949 ft 485 kts 50°
2026-05-06 14:17 43.44841 0.90582 31966 ft 485 kts 50°
2026-05-06 14:18 43.49054 0.97834 31956 ft 485 kts 50°
2026-05-06 14:18 43.53261 1.05103 31948 ft 485 kts 50°
2026-05-06 14:19 43.57433 1.12327 31949 ft 484 kts 50°
2026-05-06 14:19 43.61631 1.19614 31962 ft 485 kts 50°
2026-05-06 14:20 43.65829 1.26921 31969 ft 486 kts 50°
2026-05-06 14:20 43.69963 1.34308 31965 ft 486 kts 52°
2026-05-06 14:21 43.73932 1.41884 31963 ft 486 kts 53°
2026-05-06 14:21 43.77933 1.49424 31958 ft 486 kts 52°
2026-05-06 14:22 43.81931 1.56894 31947 ft 487 kts 52°
2026-05-06 14:22 43.85944 1.64472 31949 ft 487 kts 52°
2026-05-06 14:23 43.89952 1.72061 31947 ft 488 kts 52°
2026-05-06 14:23 43.93964 1.79651 31949 ft 488 kts 52°
2026-05-06 14:24 43.97924 1.87318 31936 ft 488 kts 54°
2026-05-06 14:24 44.01790 1.95086 31950 ft 489 kts 54°
2026-05-06 14:25 44.05633 2.02812 31944 ft 489 kts 54°
2026-05-06 14:25 44.09509 2.10610 31941 ft 489 kts 54°
2026-05-06 14:26 44.13374 2.18422 31940 ft 489 kts 54°
2026-05-06 14:26 44.17239 2.26253 31942 ft 489 kts 54°
2026-05-06 14:27 44.21070 2.34033 31955 ft 490 kts 55°
2026-05-06 14:27 44.24930 2.41899 31956 ft 491 kts 55°
2026-05-06 14:28 44.28781 2.49771 31942 ft 491 kts 55°
2026-05-06 14:28 44.32610 2.57618 31963 ft 491 kts 55°
2026-05-06 14:29 44.36455 2.65515 31962 ft 491 kts 55°
2026-05-06 14:29 44.40296 2.73421 31960 ft 492 kts 55°
2026-05-06 14:30 44.44133 2.81353 31947 ft 492 kts 55°
2026-05-06 14:30 44.47967 2.89293 31942 ft 493 kts 55°
2026-05-06 14:31 44.51156 2.95919 31942 ft 493 kts 55°
2026-05-06 14:31 44.54994 3.03906 31937 ft 493 kts 55°
2026-05-06 14:32 44.58828 3.11905 31925 ft 494 kts 56°
2026-05-06 14:32 44.62511 3.20045 31918 ft 494 kts 60°
2026-05-06 14:33 44.65764 3.28532 31912 ft 493 kts 62°
2026-05-06 14:33 44.69090 3.36909 31815 ft 495 kts 60°
2026-05-06 14:34 44.72467 3.45376 31691 ft 495 kts 60°
2026-05-06 14:34 44.74154 3.49598 31362 ft 495 kts 61°
2026-05-06 14:34 44.75834 3.53823 30912 ft 494 kts 61°
2026-05-06 14:35 44.77501 3.58030 30538 ft 491 kts 61°
2026-05-06 14:35 44.79163 3.62222 30182 ft 488 kts 60°
2026-05-06 14:35 44.80817 3.66390 29824 ft 486 kts 61°
2026-05-06 14:35 44.82457 3.70544 29486 ft 483 kts 61°
2026-05-06 14:36 44.84080 3.74656 28921 ft 479 kts 60°
2026-05-06 14:36 44.85692 3.78738 28398 ft 473 kts 60°
2026-05-06 14:36 44.87281 3.82776 27695 ft 469 kts 60°
2026-05-06 14:36 44.88855 3.86775 27093 ft 464 kts 60°
2026-05-06 14:37 44.90410 3.90729 26541 ft 458 kts 60°
2026-05-06 14:37 44.91926 3.94601 26011 ft 453 kts 60°
2026-05-06 14:37 44.93444 3.98462 25566 ft 446 kts 60°
2026-05-06 14:37 44.94937 4.02278 25065 ft 441 kts 60°
2026-05-06 14:38 44.96408 4.06059 24595 ft 436 kts 60°
2026-05-06 14:38 44.97866 4.09795 24114 ft 432 kts 60°
2026-05-06 14:38 44.99309 4.13496 23670 ft 428 kts 59°
2026-05-06 14:38 45.00738 4.17164 23066 ft 423 kts 60°
2026-05-06 14:39 45.02087 4.20827 22374 ft 419 kts 64°
2026-05-06 14:39 45.03131 4.24598 21735 ft 415 kts 71°
2026-05-06 14:39 45.04006 4.28458 21109 ft 410 kts 72°
2026-05-06 14:39 45.04855 4.32293 20519 ft 406 kts 72°
2026-05-06 14:40 45.05723 4.36082 19938 ft 403 kts 71°
2026-05-06 14:40 45.06635 4.39816 19387 ft 399 kts 70°
2026-05-06 14:40 45.07536 4.43507 18852 ft 396 kts 71°
2026-05-06 14:40 45.08429 4.47177 18341 ft 392 kts 71°
2026-05-06 14:41 45.09313 4.50808 17794 ft 388 kts 71°
2026-05-06 14:41 45.10188 4.54410 17250 ft 385 kts 71°
2026-05-06 14:41 45.11057 4.57979 16732 ft 381 kts 71°
2026-05-06 14:41 45.11899 4.61469 16186 ft 378 kts 71°
2026-05-06 14:42 45.12753 4.64990 15680 ft 376 kts 71°
2026-05-06 14:42 45.13593 4.68485 15112 ft 372 kts 71°
2026-05-06 14:42 45.14428 4.71945 14411 ft 368 kts 71°
2026-05-06 14:42 45.15250 4.75361 13761 ft 364 kts 71°
2026-05-06 14:43 45.16058 4.78727 12884 ft 358 kts 71°
2026-05-06 14:43 45.16947 4.81995 11872 ft 353 kts 60°
2026-05-06 14:43 45.18568 4.84513 11062 ft 342 kts 32°
2026-05-06 14:43 45.20633 4.85935 10329 ft 330 kts 18°
2026-05-06 14:44 45.22815 4.86900 9489 ft 325 kts 14°
2026-05-06 14:44 45.24983 4.87723 8661 ft 319 kts 13°
2026-05-06 14:44 45.27075 4.88509 8373 ft 298 kts 13°
2026-05-06 14:45 45.31026 4.89851 8402 ft 308 kts
2026-05-06 14:45 45.33185 4.90405 8425 ft 318 kts
2026-05-06 14:45 45.35343 4.90943 8277 ft 312 kts
2026-05-06 14:45 45.37478 4.91474 7688 ft 311 kts
2026-05-06 14:46 45.39574 4.92035 7172 ft 309 kts
2026-05-06 14:46 45.41675 4.92606 6786 ft 307 kts
2026-05-06 14:46 45.43763 4.93181 6378 ft 305 kts
2026-05-06 14:46 45.45843 4.93751 5939 ft 303 kts
2026-05-06 14:47 45.47911 4.94317 5482 ft 302 kts
2026-05-06 14:47 45.49969 4.94884 5023 ft 300 kts 10°
2026-05-06 14:47 45.52016 4.95449 4556 ft 299 kts 10°
2026-05-06 14:47 45.54051 4.96011 4083 ft 297 kts 10°
2026-05-06 14:48 45.56068 4.96565 3641 ft 294 kts 11°
2026-05-06 14:48 45.58073 4.97118 3272 ft 288 kts 11°
2026-05-06 14:48 45.60045 4.97663 3126 ft 289 kts 10°
2026-05-06 14:48 45.62013 4.98214 3071 ft 288 kts 11°
2026-05-06 14:49 45.63976 4.98760 3052 ft 286 kts 10°
2026-05-06 14:49 45.65897 4.99284 3021 ft 284 kts 11°
2026-05-06 14:49 45.67826 4.99817 3018 ft 282 kts 11°
2026-05-06 14:49 45.69747 5.00351 3018 ft 280 kts 11°
2026-05-06 14:50 45.71659 5.00880 3021 ft 279 kts 11°
2026-05-06 14:50 45.73572 5.01411 3014 ft 280 kts 11°
2026-05-06 14:50 45.75513 5.01949 3009 ft 288 kts 11°
2026-05-06 14:50 45.77505 5.02507 3020 ft 294 kts 11°
2026-05-06 14:51 45.79529 5.03067 3024 ft 299 kts 11°
2026-05-06 14:51 45.81587 5.03645 3019 ft 302 kts 11°
2026-05-06 14:51 45.83662 5.04222 3014 ft 305 kts 10°
2026-05-06 14:51 45.85731 5.04801 3032 ft 308 kts 11°
2026-05-06 14:52 45.87704 5.05954 3001 ft 309 kts 37°
2026-05-06 14:52 45.89003 5.08296 2991 ft 296 kts 68°
2026-05-06 14:52 45.89419 5.11088 2982 ft 277 kts 93°
2026-05-06 14:52 45.88956 5.13628 2979 ft 256 kts 121°
2026-05-06 14:53 45.87774 5.15375 2984 ft 238 kts 152°
2026-05-06 14:53 45.86246 5.15916 3008 ft 220 kts 185°
2026-05-06 14:53 45.84898 5.15162 3043 ft 205 kts 221°
2026-05-06 14:53 45.83902 5.13806 3104 ft 189 kts 225°
2026-05-06 14:54 45.82964 5.12521 2793 ft 183 kts 224°
2026-05-06 14:54 45.82042 5.11319 2512 ft 175 kts 221°
2026-05-06 14:54 45.81106 5.10289 2239 ft 166 kts 209°
2026-05-06 14:54 45.80103 5.09703 2109 ft 145 kts 198°
2026-05-06 14:55 45.79224 5.09350 1935 ft 120 kts 193°
2026-05-06 14:55 45.78455 5.09100 1681 ft 108 kts 191°
2026-05-06 14:55 45.77706 5.08928 1457 ft 113 kts 185°
2026-05-06 14:55 45.76928 5.08823 1274 ft 110 kts 180°
2026-05-06 14:56 45.76067 5.08856 1227 ft 136 kts 174°
2026-05-06 14:56 45.75131 5.08970 1146 ft 130 kts 174°
2026-05-06 14:56 45.74264 5.09073 979 ft 123 kts 173°
2026-05-06 14:56 45.73447 5.09182 817 ft 114 kts 172°
2026-05-06 14:57 45.72679 5.09287 778 ft 104 kts 175°
2026-05-06 14:57 45.72198 5.09330 785 ft 29 kts 192°
2026-05-06 14:57 45.72025 5.09236 788 ft 18 kts 208°
2026-05-06 14:57 45.71977 5.09093 793 ft 16 kts 264°
2026-05-06 14:58 45.71966 5.08944 797 ft 15 kts 264°
2026-05-06 14:58 45.71954 5.08786 795 ft 18 kts 265°
2026-05-06 14:58 45.71943 5.08596 793 ft 20 kts 265°
2026-05-06 14:58 45.71951 5.08386 792 ft 22 kts 283°
2026-05-06 14:59 45.71985 5.08268 792 ft 12 kts 322°
2026-05-06 14:59 45.72069 5.08272 791 ft 14 kts 14°
2026-05-06 14:59 45.72150 5.08295 790 ft 2 kts 341°
2026-05-06 14:59 45.72175 5.08237 789 ft 12 kts 292°
2026-05-06 15:00 45.72180 5.08223 789 ft 0 kts 296°